Regional Weather Roundup
Issued by NWS

Home | Current Version | Previous Version | Text Only | Print | Product List | Glossary Off
Versions: 1 2 3 4 5 6 7 8 9 10 11 12 13 14 15 16 17 18 19 20 21 22 23 24 25 26 27 28 29 30 31 32 33 34 35 36 37 38 39 40 41 42 43 44 45 46 47 48 49 50

219
ASUS43 KMPX 231210
RWRMN
WEATHER ROUNDUP FOR MINNESOTA
NATIONAL WEATHER SERVICE TWIN CITIES/CHANHASSEN MN
700 AM CDT THU MAR 23 2017


NOTE: "FAIR" INDICATES FEW OR NO CLOUDS BELOW 12,000 FEET WITH NO
SIGNIFICANT WEATHER AND/OR OBSTRUCTIONS TO VISIBILITY. N/A MEANS
CURRENT SKY AND/OR WEATHER CONDITIONS ARE NOT AVAILABLE.

MNZ060>063-068>070-231300-
   Twin Cities Metro

CITY           SKY/WX    TMP DP  RH WIND       PRES   REMARKS
TWIN CITIES    CLOUDY    37  22  54 SE15      30.15F
6HR MIN TEMP:  36; 6HR MAX TEMP:  37; 6HR PCP: TRACE;

ST PAUL        CLOUDY    37  23  56 SE16G25   30.17F
CRYSTAL        CLOUDY    37  21  52 S16G26    30.13F
BLAINE         CLOUDY    39  23  52 S16       30.13F
LAKEVILLE      CLOUDY    34  25  69 SE14      30.15F WCI  24
EDEN PRAIRIE   CLOUDY    37  23  56 SE14      30.13F
6HR MIN TEMP:  37; 6HR MAX TEMP:  38;

SOUTH ST PAUL  CLOUDY    37  23  56 SE12G17   30.15F
LAKE ELMO      CLOUDY    36  23  60 SE14G22   30.17F
$$
MNZ001>005-007-008-013>017-022>024-027-028-231300-
   Northwest Minnesota

CITY           SKY/WX    TMP DP  RH WIND       PRES   REMARKS
BEMIDJI        CLOUDY    32  20  61 SE10      29.96F WCI  24
HALLOCK        CLOUDY    32  27  80 S15       29.86F WCI  22
ROSEAU         PTCLDY    34  25  69 S15G21    29.89F WCI  24
WARROAD        CLOUDY    32  23  69 SE8       29.91F WCI  25
THIEF RVR FALL   N/A    N/A N/A N/A MISG        N/A
CROOKSTON      CLOUDY    34  25  69 S16       29.89F WCI  23
FOSSTON        CLOUDY    34  21  60 S15       29.91F WCI  24
DETROIT LAKES  CLOUDY    34  25  69 SE15G22   29.95F WCI  24
MOORHEAD       PTCLDY    36  25  64 S24G30    29.91F
PARK RAPIDS    CLOUDY    35  19  52 S18       29.97F WCI  24
MAHNOMEN       FAIR      35  22  61 S17       29.90F WCI  24
$$
MNZ006-009>011-018-025>026-231300-
   North Central Minnesota

CITY           SKY/WX    TMP DP  RH WIND       PRES   REMARKS
BAUDETTE       CLOUDY    32  18  56 S13G20    29.94F WCI  22
FLAG ISLAND    CLOUDY    28  23  80 SE17      29.91F WCI  16
INTL FALLS     CLOUDY    32  18  56 S8        30.00F WCI  25
6HR MIN TEMP:  28; 6HR MAX TEMP:  33; 6HR PCP: TRACE;

WASKISH        CLEAR     32  21  64 S9G18     29.96F WCI  24
BIG FORK       CLOUDY    34  21  60 S10G21    30.02F WCI  26
LONGVILLE      CLOUDY    32  21  64 SE13      30.03F WCI  22
GRAND RAPIDS   CLOUDY    31  23  72 S18G24    30.06F WCI  19
CRANE LAKE     CLOUDY    28  21  74 S6        30.07F WCI  22
ORR            CLOUDY    30  18  59 S12G20    30.02F WCI  21
COOK           CLOUDY    30  21  69 S9G17     30.07F WCI  22
WALKER         CLOUDY    33  19  57 SE9G17    29.99F WCI  25
$$
MNZ012-019>021-037-231300-
   Northeast Minnesota

CITY           SKY/WX    TMP DP  RH WIND       PRES   REMARKS
DULUTH         FLURRIES  28  26  92 SE12      30.14F WCI  18
6HR MIN TEMP:  28; 6HR MAX TEMP:  31; 6HR PCP: TRACE;

ELY            CLOUDY    28  21  74 S9        30.10F WCI  20
HIBBING        CLOUDY    29  21  72 S13G21    30.08F WCI  19
EVELETH        CLOUDY    32  24  70 S13       30.10F WCI  23
DULUTH HARBOR  CLOUDY    32  28  86 CALM      30.20F
TWO HARBORS    CLOUDY    30  27  86 S6        30.17F WCI  24
SILVER BAY     CLOUDY    28  28 100 S8        30.17F WCI  20
GRAND MARAIS     N/A     30  29  96 SW14      30.25F WCI  19
G MARAIS ARPRT LGT SNOW  25  19  80 S8        30.18F VSB 1   WCI  16
$$
MNZ029>031-032-039>041-046>048-054>057-064-231300-
   West Central Minnesota

CITY           SKY/WX    TMP DP  RH WIND       PRES   REMARKS
FERGUS FALLS   CLOUDY    36  25  64 SE18G28   29.99F
WHEATON        CLOUDY    36  27  69 SE16      29.96S
MORRIS         CLOUDY    36  25  64 SE17      29.97S
ALEXANDRIA     CLOUDY    36  23  59 SE17G26   30.00F
ELBOW LAKE     FAIR      34  24  65 E26G32    29.97S WCI  21
WADENA         CLOUDY    34  21  60 S16G25    29.99F WCI  23
GLENWOOD       CLOUDY    36  23  60 SE16      30.01F
APPLETON       CLOUDY    39  25  56 SE9G20    29.98F
BENSON         CLOUDY    39  21  48 S14G20    30.02F
ORTONVILLE     CLOUDY    36  27  69 SE14      29.95S
MADISON        CLOUDY    39  30  70 S15G21    29.96F
WILLMAR        CLOUDY    37  25  60 SE18G24   30.04F
$$
MNZ033>034-036-042>043-049>051-058-059-231300-
   Central Minnesota

CITY           SKY/WX    TMP DP  RH WIND       PRES   REMARKS
ST CLOUD       CLOUDY    36  22  56 SE16      30.08F
6HR MIN TEMP:  35; 6HR MAX TEMP:  36;

SAUK CENTRE    CLOUDY    35  23  62 SE17G24   30.03F WCI  24
PAYNESVILLE      N/A     36  23  60 SE14G25   30.05F
AITKIN         CLOUDY    36  19  51 SE14      30.06S
PINE RIVER     CLOUDY    34  21  60 SE10      30.07F WCI  26
BRAINERD       CLOUDY    34  20  56 SE15G21   30.06F WCI  24
STAPLES        CLOUDY    34  19  55 SE13G18   30.02F WCI  25
LONG PRAIRIE   CLOUDY    34  23  64 E16G22    30.03F WCI  23
LITTLE FALLS   CLOUDY    36  21  55 SE14G20   30.07F
LITCHFIELD     CLOUDY    37  25  60 SE13G20   30.07F
BUFFALO        CLOUDY    37  22  56 SE9G18    30.12F
MAPLE LAKE     CLOUDY    37  26  63 SE15      30.10F
HUTCHINSON     CLOUDY    37  26  65 SE16G23   30.09F
$$
MNZ037-044-045-052-053-231300-
   East Central Minnesota

CITY           SKY/WX    TMP DP  RH WIND       PRES   REMARKS
PRINCETON      CLOUDY    37  21  52 SE10G18   30.11F
MORA           CLOUDY    32  23  69 SE6       30.15F WCI  26
CAMBRIDGE      CLOUDY    37  23  56 SE9       30.11F
RUSH CITY      CLOUDY    34  21  59 SE8       30.15F WCI  27
MOOSE LAKE     CLOUDY    32  23  69 S8G16     30.12F WCI  25
HINCKLEY       CLOUDY    32  25  74 SE6       30.15F WCI  26
CLOQUET        CLOUDY    28  25  86 E6        30.13F WCI  22
MCGREGOR       CLOUDY    32  25  74 SE13      30.09F WCI  22
$$
MNZ071>073-080-081-089-090-097-098-231300-
   Southwest Minnesota

CITY           SKY/WX    TMP DP  RH WIND       PRES   REMARKS
MONTEVIDEO     CLOUDY    37  25  60 S17G28    30.00F
GRANITE FALLS  CLOUDY    38  28  65 SE15      30.03S
CANBY          CLOUDY    40  28  60 SE12      29.97F
MARSHALL       CLOUDY    38  24  57 S18       29.99F
REDWOOD FALLS  CLOUDY    37  24  59 SE18      30.04F
OLIVIA         CLOUDY    36  27  69 SE17      30.03F
PIPESTONE      CLOUDY    37  21  52 S15G22    29.95F
WINDOM         MOCLDY    36  23  60 SE16G23   30.04S
WORTHINGTON    CLOUDY    36  23  59 SE15      30.01F
JACKSON        CLOUDY    36  23  60 SE18      30.05F
TRACY          CLOUDY    38  25  59 S21G29    29.99F
SLAYTON        CLOUDY    35  25  67 SE16      30.00F WCI  25
$$
MNZ065>067-074>077-082>085-091>093-231300-
   South Central Minnesota

CITY           SKY/WX    TMP DP  RH WIND       PRES   REMARKS
MANKATO        CLOUDY    36  24  62 SE17      30.11F
NEW ULM        CLOUDY    36  25  64 SE13      30.08F
ST JAMES       CLOUDY    36  25  64 SE17      30.09F
FAIRMONT       CLOUDY    36  23  59 SE18G26   30.08F
GLENCOE        CLOUDY    37  27  67 SE13G18   30.10F
FARIBAULT      CLOUDY    36  23  60 SE17      30.14F
OWATONNA       CLOUDY    36  21  55 SE20G28   30.13F
WASECA         CLOUDY    34  25  69 SE12G24   30.14F WCI  25
ALBERT LEA     CLOUDY    34  23  64 SE17G24   30.14F WCI  23
$$
MNZ078>079-086>088-094>096-231300-
   Southeast Minnesota

CITY           SKY/WX    TMP DP  RH WIND       PRES   REMARKS
ROCHESTER      CLOUDY    33  22  63 SE22G29   30.17F WCI  21
6HR MIN TEMP:  33; 6HR MAX TEMP:  35;

RED WING       CLOUDY    37  19  48 SE10      30.20F
STANTON        CLOUDY    37  23  56 SE13G18   30.15F
DODGE CENTER   CLOUDY    34  23  64 SE20G26   30.16S WCI  22
WINONA         CLOUDY    36  27  69 SE12      30.25F
AUSTIN         CLOUDY    34  23  64 SE12G17   30.16F WCI  25
PRESTON        CLOUDY    32  20  61 SE15      30.21F WCI  22
$$
ABBREVIATIONS USED IN REMARKS
   TC - TEMPERATURES IN CELSIUS
  WCI - WIND CHILL INDEX
   HX - HEAT INDEX
  VSB - VISIBILITY
$$




USA.gov is the U.S. government's official web portal to all federal, state and local government web resources and services.